Airfield :
LOGIN :

Register | Disclaimer

   EN    FR    IT 

 










Legend :    VFR   Marginal VFR   IFR   Intensive IFR   Very Intensive IFR
Visi :
Ceiling :
>= 8 km
>= 3000ft
5 to 8 km
1000 to 3000 ft
1500m to 5 km
500 to 1000 ft
800 to 1500m
200 to 500 ft
< 800m
< 200 ft
Symbols :   Thunderstorms  Fog  Heavy snow  Heavy precipitations  Wind > 20 kt
SIGMETs :     Misc.  Thunderstorms  Icing  Turbulence  Mountain Waves  Volcanic Ashes






- Airport Elevation : 23 ft
- IATA code : XFW


EDHI - Hamburg Finkenwerder

CURRENT METAR :
  • 270050Z AUTO 23002KT 9999 // NCD 17/16 Q1009

EXPIRED METARs :
  • 270020Z AUTO 00000KT 9999 // FEW087/// 17/16 Q1009
  • 262350Z AUTO 00000KT 9999 // SCT120/// SCT240/// 18/17 Q1009
  • 262320Z AUTO VRB02KT 9999 // FEW120/// SCT240/// 18/17 Q1009
  • 262250Z AUTO 02002KT 9999 // FEW120/// 19/16 Q1010
  • 262220Z AUTO 05004KT 9999 // NCD 19/17 Q1010

Expired Forecast.



MET'MAP, your aeronautical weather chart ! - Copyright ORBIFLY December 2007 - Disclaimer

ORBIFLY MET'MAP TEAM :

Programming & Development : Alexandra Zaïnal
Concept & original design : Baudouin d'Aumeries
Assistance for programming : Marc-Olivier Méhu
Technical & hardware support : Manuel Goepfert

Contact : metmap@orbifly.com




SOURCES & CREDITS :

   NOAA